Powrót do katalogu

CZ-6A DEB

AktywnyPO
NORAD 54569·DEBRIS·🇨🇳 China

Wystrzelony Nov 11, 2022 z Taiyuan Satellite Launch Center

Loading…

Następne Przeloty (najbliższe 24 godziny)

TLE

ŚwieżeSource: Space-Track

Epoka: Sep 14, 2026, 05:42 UTC

1 54569U 22151LV  26257.23750950  .00104328  00000-0  40856-2 0  9996
2 54569  98.6212 357.9863 0026425 274.7414  85.0803 15.25037069205018

Śledź CZ-6A DEB w czasie rzeczywistym z AllMySat

Download on the App Store